Time,TemperatureF,DewpointF,PressureIn,WindDirection,WindDirectionDegrees,WindSpeedMPH,WindSpeedGustMPH,Humidity,HourlyPrecipIn,Conditions,Clouds,dailyrainin,SolarRadiationWatts/m^2,SoftwareType,DateUTC
2013-05-02 00:00:00,70.0,67.6,30.00,SE,143,1.0,2.0,92,0.00,CLR,,0.00,0.0,WeatherDisplay:10.37,2013-05-01 14:00:00,
2013-05-02 00:05:00,69.8,67.4,30.00,SSE,168,0.0,2.0,92,0.00,CLR,,0.00,0.0,WeatherDisplay:10.37,2013-05-01 14:05:00,
2013-05-02 00:10:00,69.6,67.5,30.00,WNW,290,0.0,1.0,93,0.00,CLR,,0.00,0.0,WeatherDisplay:10.37,2013-05-01 14:10:00,
2013-05-02 00:15:00,69.4,67.3,30.00,NW,315,0.0,1.0,93,0.00,CLR,,0.00,0.0,WeatherDisplay:10.37,2013-05-01 14:15:00,
2013-05-02 00:20:00,69.4,67.3,30.00,NW,315,0.0,0.0,93,0.00,CLR,,0.00,0.0,WeatherDisplay:10.37,2013-05-01 14:20:00,
2013-05-02 00:25:00,69.6,67.5,30.00,West,281,0.0,1.0,93,0.00,CLR,,0.00,0.0,WeatherDisplay:10.37,2013-05-01 14:25:00,
2013-05-02 00:30:00,69.8,67.7,30.00,SW,214,0.0,0.0,93,0.00,CLR,,0.00,0.0,WeatherDisplay:10.37,2013-05-01 14:30:00,
2013-05-02 00:35:00,69.6,67.8,30.00,SW,216,0.0,0.0,94,0.00,CLR,,0.00,0.0,WeatherDisplay:10.37,2013-05-01 14:35:00,
2013-05-02 00:40:00,69.6,67.8,30.00,WNW,288,0.0,0.0,94,0.00,CLR,,0.00,0.0,WeatherDisplay:10.37,2013-05-01 14:40:00,
2013-05-02 00:45:00,69.4,67.6,30.00,NW,309,0.0,1.0,94,0.00,CLR,,0.00,0.0,WeatherDisplay:10.37,2013-05-01 14:45:00,
2013-05-02 00:50:00,70.2,68.1,29.99,ESE,119,5.0,8.0,93,0.00,CLR,,0.00,0.0,WeatherDisplay:10.37,2013-05-01 14:50:00,
2013-05-02 00:55:00,71.0,67.9,29.99,ESE,110,7.0,13.0,90,0.00,CLR,,0.00,0.0,WeatherDisplay:10.37,2013-05-01 14:55:00,
2013-05-02 01:00:00,71.6,67.2,29.99,ESE,117,5.0,8.0,86,0.00,CLR,,0.00,0.0,WeatherDisplay:10.37,2013-05-01 15:00:00,
2013-05-02 01:05:00,71.6,66.8,29.99,ESE,113,5.0,8.0,85,0.00,CLR,,0.00,0.0,WeatherDisplay:10.37,2013-05-01 15:05:00,
2013-05-02 01:10:00,71.6,66.8,29.99,ESE,114,3.0,6.0,85,0.00,CLR,,0.00,0.0,WeatherDisplay:10.37,2013-05-01 15:10:00,
2013-05-02 01:15:00,71.4,67.0,29.99,ESE,117,2.0,6.0,86,0.00,CLR,,0.00,0.0,WeatherDisplay:10.37,2013-05-01 15:15:00,
2013-05-02 01:20:00,71.4,67.0,29.99,ESE,103,2.0,8.0,86,0.00,CLR,,0.00,0.0,WeatherDisplay:10.37,2013-05-01 15:20:00,
2013-05-02 01:25:00,71.5,67.0,29.98,ESE,118,2.0,8.0,86,0.00,CLR,,0.00,0.0,WeatherDisplay:10.37,2013-05-01 15:25:00,
2013-05-02 01:30:00,71.6,66.8,29.98,SE,129,2.0,4.0,85,0.00,CLR,,0.00,0.0,WeatherDisplay:10.37,2013-05-01 15:30:00,
2013-05-02 01:35:00,71.3,67.2,29.98,SSE,154,1.0,3.0,87,0.00,CLR,,0.00,0.0,WeatherDisplay:10.37,2013-05-01 15:35:00,
2013-05-02 01:40:00,71.0,67.3,29.98,South,187,1.0,3.0,88,0.00,CLR,,0.00,0.0,WeatherDisplay:10.37,2013-05-01 15:40:00,
2013-05-02 01:45:00,70.7,67.0,29.98,SSW,206,1.0,2.0,88,0.00,CLR,,0.00,0.0,WeatherDisplay:10.37,2013-05-01 15:45:00,
2013-05-02 01:50:00,70.7,67.0,29.98,SW,232,1.0,2.0,88,0.00,CLR,,0.00,0.0,WeatherDisplay:10.37,2013-05-01 15:50:00,
2013-05-02 01:55:00,70.7,67.0,29.98,West,263,0.0,2.0,88,0.00,CLR,,0.00,0.0,WeatherDisplay:10.37,2013-05-01 15:55:00,
2013-05-02 02:00:00,70.5,66.8,29.98,West,270,0.0,0.0,88,0.00,CLR,,0.00,0.0,WeatherDisplay:10.37,2013-05-01 16:00:00,
2013-05-02 02:10:00,70.5,67.8,29.97,West,270,0.0,2.0,91,0.00,CLR,,0.00,0.0,WeatherDisplay:10.37,2013-05-01 16:10:00,
2013-05-02 02:15:00,70.3,67.9,29.97,West,270,0.0,2.0,92,0.00,CLR,,0.00,0.0,WeatherDisplay:10.37,2013-05-01 16:15:00,
2013-05-02 02:20:00,70.2,67.7,29.97,West,270,0.0,2.0,92,0.00,CLR,,0.00,0.0,WeatherDisplay:10.37,2013-05-01 16:20:00,
2013-05-02 02:25:00,70.0,67.5,29.97,West,270,0.0,1.0,92,0.00,CLR,,0.00,0.0,WeatherDisplay:10.37,2013-05-01 16:25:00,
2013-05-02 02:30:00,69.9,67.5,29.97,West,260,1.0,2.0,92,0.00,CLR,,0.00,0.0,WeatherDisplay:10.37,2013-05-01 16:30:00,
2013-05-02 02:35:00,69.6,67.5,29.97,SW,233,1.0,2.0,93,0.00,CLR,,0.00,0.0,WeatherDisplay:10.37,2013-05-01 16:35:00,
2013-05-02 02:45:00,69.3,67.5,29.96,SW,223,1.0,3.0,94,0.00,CLR,,0.00,0.0,WeatherDisplay:10.37,2013-05-01 16:45:00,
2013-05-02 02:50:00,69.4,67.6,29.96,WSW,246,0.0,2.0,94,0.00,CLR,,0.00,0.0,WeatherDisplay:10.37,2013-05-01 16:50:00,
2013-05-02 02:55:00,69.4,67.3,29.96,West,275,0.0,2.0,93,0.00,CLR,,0.00,0.0,WeatherDisplay:10.37,2013-05-01 16:55:00,
2013-05-02 03:00:00,69.4,67.3,29.96,ENE,77,1.0,2.0,93,0.00,CLR,,0.00,0.0,WeatherDisplay:10.37,2013-05-01 17:00:00,
2013-05-02 03:05:00,69.3,67.1,29.96,East,85,0.0,2.0,93,0.00,CLR,,0.00,0.0,WeatherDisplay:10.37,2013-05-01 17:05:00,
2013-05-02 03:10:00,69.3,67.1,29.96,ENE,74,0.0,0.0,93,0.00,CLR,,0.00,0.0,WeatherDisplay:10.37,2013-05-01 17:10:00,
2013-05-02 03:15:00,69.3,67.1,29.96,NE,51,0.0,1.0,93,0.00,CLR,,0.00,0.0,WeatherDisplay:10.37,2013-05-01 17:15:00,
2013-05-02 03:20:00,69.0,66.9,29.96,NE,45,1.0,2.0,93,0.00,CLR,,0.00,0.0,WeatherDisplay:10.37,2013-05-01 17:20:00,
2013-05-02 03:25:00,68.7,66.9,29.96,SW,225,1.0,2.0,94,0.00,CLR,,0.00,0.0,WeatherDisplay:10.37,2013-05-01 17:25:00,
2013-05-02 03:30:00,68.4,66.6,29.96,SW,225,0.0,2.0,94,0.00,CLR,,0.00,0.0,WeatherDisplay:10.37,2013-05-01 17:30:00,
2013-05-02 03:35:00,68.0,66.2,29.96,SW,225,0.0,0.0,94,0.00,CLR,,0.00,0.0,WeatherDisplay:10.37,2013-05-01 17:35:00,
2013-05-02 03:40:00,67.8,66.6,29.96,SW,225,0.0,1.0,96,0.00,CLR,,0.00,0.0,WeatherDisplay:10.37,2013-05-01 17:40:00,
2013-05-02 03:45:00,68.0,66.5,29.96,WSW,243,1.0,2.0,95,0.00,CLR,,0.00,0.0,WeatherDisplay:10.37,2013-05-01 17:45:00,
2013-05-02 03:50:00,68.2,66.7,29.97,WSW,238,0.0,2.0,95,0.00,CLR,,0.00,0.0,WeatherDisplay:10.37,2013-05-01 17:50:00,
2013-05-02 03:55:00,68.2,66.7,29.97,SSE,148,0.0,0.0,95,0.00,CLR,,0.00,0.0,WeatherDisplay:10.37,2013-05-01 17:55:00,
2013-05-02 04:00:00,68.2,66.7,29.96,SSE,148,0.0,2.0,95,0.00,CLR,,0.00,0.0,WeatherDisplay:10.37,2013-05-01 18:00:00,
2013-05-02 04:05:00,68.3,66.8,29.97,South,178,1.0,2.0,95,0.00,CLR,,0.00,0.0,WeatherDisplay:10.37,2013-05-01 18:05:00,
2013-05-02 04:10:00,68.7,67.2,29.97,South,171,1.0,3.0,95,0.00,CLR,,0.00,0.0,WeatherDisplay:10.37,2013-05-01 18:10:00,
2013-05-02 04:15:00,69.1,67.3,29.97,SE,137,1.0,4.0,94,0.00,CLR,,0.00,0.0,WeatherDisplay:10.37,2013-05-01 18:15:00,
2013-05-02 04:20:00,69.4,67.3,29.96,ENE,69,0.0,2.0,93,0.00,CLR,,0.00,0.0,WeatherDisplay:10.37,2013-05-01 18:20:00,
2013-05-02 04:25:00,69.4,67.3,29.97,NNE,12,0.0,2.0,93,0.00,CLR,,0.00,0.0,WeatherDisplay:10.37,2013-05-01 18:25:00,
2013-05-02 04:30:00,69.4,67.3,29.97,North,0,0.0,2.0,93,0.00,CLR,,0.00,0.0,WeatherDisplay:10.37,2013-05-01 18:30:00,
2013-05-02 04:35:00,69.6,67.2,29.97,ENE,61,2.0,4.0,92,0.00,CLR,,0.00,0.0,WeatherDisplay:10.37,2013-05-01 18:35:00,
2013-05-02 04:40:00,70.0,66.7,29.97,East,93,2.0,4.0,89,0.00,CLR,,0.00,0.0,WeatherDisplay:10.37,2013-05-01 18:40:00,
2013-05-02 04:45:00,70.5,66.1,29.97,ESE,103,2.0,8.0,86,0.00,CLR,,0.00,0.0,WeatherDisplay:10.37,2013-05-01 18:45:00,
2013-05-02 04:50:00,70.5,65.8,29.97,East,92,3.0,6.0,85,0.00,CLR,,0.00,0.0,WeatherDisplay:10.37,2013-05-01 18:50:00,
2013-05-02 04:55:00,70.7,66.0,29.97,ENE,67,1.0,6.0,85,0.00,CLR,,0.00,0.0,WeatherDisplay:10.37,2013-05-01 18:55:00,
2013-05-02 05:00:00,70.5,65.8,29.96,ENE,58,1.0,4.0,85,0.00,CLR,,0.00,0.0,WeatherDisplay:10.37,2013-05-01 19:00:00,
2013-05-02 05:05:00,70.5,65.8,29.97,SE,130,1.0,6.0,85,0.00,CLR,,0.00,0.0,WeatherDisplay:10.37,2013-05-01 19:05:00,
2013-05-02 05:10:00,69.8,65.5,29.97,SSE,165,0.0,2.0,86,0.00,CLR,,0.00,0.0,WeatherDisplay:10.37,2013-05-01 19:10:00,
2013-05-02 05:15:00,69.2,65.5,29.97,SSW,207,1.0,2.0,88,0.00,CLR,,0.00,0.0,WeatherDisplay:10.37,2013-05-01 19:15:00,
2013-05-02 05:20:00,68.9,65.5,29.97,SSW,205,1.0,3.0,89,0.00,CLR,,0.00,0.0,WeatherDisplay:10.37,2013-05-01 19:20:00,
2013-05-02 05:25:00,69.1,65.7,29.98,SSE,160,1.0,2.0,89,0.00,CLR,,0.00,0.0,WeatherDisplay:10.37,2013-05-01 19:25:00,
2013-05-02 05:30:00,69.1,65.7,29.98,SE,135,1.0,2.0,89,0.00,CLR,,0.00,0.0,WeatherDisplay:10.37,2013-05-01 19:30:00,
2013-05-02 05:35:00,69.3,65.9,29.98,SSE,167,1.0,2.0,89,0.00,CLR,,0.00,0.0,WeatherDisplay:10.37,2013-05-01 19:35:00,
2013-05-02 05:40:00,69.3,66.2,29.98,WNW,295,0.0,2.0,90,0.00,CLR,,0.00,0.0,WeatherDisplay:10.37,2013-05-01 19:40:00,
2013-05-02 05:45:00,69.1,66.0,29.98,NNW,347,0.0,1.0,90,0.00,CLR,,0.00,0.0,WeatherDisplay:10.37,2013-05-01 19:45:00,
2013-05-02 05:50:00,69.3,66.2,29.98,NW,317,0.0,2.0,90,0.00,CLR,,0.00,0.0,WeatherDisplay:10.37,2013-05-01 19:50:00,
2013-05-02 05:55:00,69.3,66.5,29.98,West,274,1.0,2.0,91,0.00,CLR,,0.00,0.0,WeatherDisplay:10.37,2013-05-01 19:55:00,
2013-05-02 06:00:00,69.3,66.2,29.99,SSE,160,1.0,3.0,90,0.00,CLR,,0.00,0.0,WeatherDisplay:10.37,2013-05-01 20:00:00,
2013-05-02 06:05:00,69.6,66.6,29.99,SE,138,2.0,5.0,90,0.00,CLR,,0.00,0.0,WeatherDisplay:10.37,2013-05-01 20:05:00,
2013-05-02 06:10:00,70.3,66.3,29.99,SSE,164,1.0,3.0,87,0.00,CLR,,0.00,0.0,WeatherDisplay:10.37,2013-05-01 20:10:00,
2013-05-02 06:15:00,70.3,66.2,29.99,South,170,1.0,3.0,87,0.00,CLR,,0.00,0.0,WeatherDisplay:10.37,2013-05-01 20:15:00,
2013-05-02 06:20:00,70.3,66.3,29.99,SE,125,0.0,3.0,87,0.00,CLR,,0.00,0.0,WeatherDisplay:10.37,2013-05-01 20:20:00,
2013-05-02 06:25:00,70.2,66.1,30.00,East,92,0.0,2.0,87,0.00,CLR,,0.00,0.0,WeatherDisplay:10.37,2013-05-01 20:25:00,
2013-05-02 06:30:00,70.3,66.3,30.00,ESE,120,0.0,2.0,87,0.00,CLR,,0.00,0.0,WeatherDisplay:10.37,2013-05-01 20:30:00,
2013-05-02 06:35:00,70.3,66.3,30.00,SE,135,1.0,2.0,87,0.00,CLR,,0.00,0.9,WeatherDisplay:10.37,2013-05-01 20:35:00,
2013-05-02 06:40:00,70.3,66.3,30.00,SE,135,0.0,2.0,87,0.00,CLR,,0.00,4.6,WeatherDisplay:10.37,2013-05-01 20:40:00,
2013-05-02 06:45:00,70.3,66.3,30.00,SE,124,0.0,2.0,87,0.00,CLR,,0.00,7.3,WeatherDisplay:10.37,2013-05-01 20:45:00,
2013-05-02 06:50:00,70.0,66.6,30.00,NE,41,0.0,2.0,89,0.00,BKN,,0.00,20.2,WeatherDisplay:10.37,2013-05-01 20:50:00,
2013-05-02 06:55:00,70.1,66.7,30.00,North,7,1.0,3.0,89,0.00,BKN,,0.00,32.4,WeatherDisplay:10.37,2013-05-01 20:55:00,
2013-05-02 07:00:00,70.4,67.0,30.00,East,83,3.0,8.0,89,0.00,BKN,,0.00,35.3,WeatherDisplay:10.37,2013-05-01 21:00:00,
2013-05-02 07:05:00,71.3,66.6,30.00,ESE,108,6.0,9.0,85,0.00,BKN,,0.00,41.8,WeatherDisplay:10.37,2013-05-01 21:05:00,
2013-05-02 07:10:00,72.0,66.2,30.01,ESE,113,7.0,12.0,82,0.00,BKN,,0.00,44.5,WeatherDisplay:10.37,2013-05-01 21:10:00,
2013-05-02 07:15:00,72.2,66.4,30.01,ESE,110,8.0,13.0,82,0.00,SCT,,0.00,75.2,WeatherDisplay:10.37,2013-05-01 21:15:00,
2013-05-02 07:20:00,72.8,66.6,30.01,ESE,109,5.0,11.0,81,0.00,SCT,,0.00,84.0,WeatherDisplay:10.37,2013-05-01 21:20:00,
2013-05-02 07:25:00,72.9,66.7,30.01,SE,126,3.0,8.0,81,0.00,CLR,,0.00,99.7,WeatherDisplay:10.37,2013-05-01 21:25:00,
2013-05-02 07:30:00,73.0,66.9,30.01,ESE,119,2.0,6.0,81,0.00,CLR,,0.00,97.0,WeatherDisplay:10.37,2013-05-01 21:30:00,
2013-05-02 07:35:00,74.1,67.5,30.01,ESE,110,6.0,10.0,80,0.00,CLR,,0.00,81.0,WeatherDisplay:10.37,2013-05-01 21:35:00,
2013-05-02 07:40:00,75.5,67.8,30.01,ESE,108,3.0,9.0,77,0.00,CLR,,0.00,65.0,WeatherDisplay:10.37,2013-05-01 21:40:00,
2013-05-02 07:45:00,76.5,68.0,30.01,East,101,9.0,12.0,75,0.00,CLR,,0.00,49.0,WeatherDisplay:10.37,2013-05-01 21:45:00,
2013-05-02 07:50:00,75.0,67.3,30.01,ESE,106,3.0,12.0,77,0.00,CLR,,0.00,34.0,WeatherDisplay:10.37,2013-05-01 21:50:00,
2013-05-02 07:55:00,75.7,67.6,30.01,ESE,113,7.0,12.0,76,0.00,CLR,,0.00,19.0,WeatherDisplay:10.37,2013-05-01 21:55:00,
2013-05-02 08:00:00,76.3,67.8,30.01,East,101,6.0,10.0,75,0.00,CLR,,0.00,5.0,WeatherDisplay:10.37,2013-05-01 22:00:00,
2013-05-02 08:05:00,75.1,67.0,30.02,ESE,109,7.0,13.0,76,0.00,OVC,,0.00,195.7,WeatherDisplay:10.37,2013-05-01 22:05:00,
2013-05-02 08:10:00,74.5,67.2,30.02,ESE,109,9.0,17.0,78,0.00,OVC,,0.00,202.6,WeatherDisplay:10.37,2013-05-01 22:10:00,
2013-05-02 08:15:00,74.5,67.6,30.02,ESE,110,12.0,17.0,79,0.00,OVC,,0.00,188.0,WeatherDisplay:10.37,2013-05-01 22:15:00,
2013-05-02 08:20:00,74.5,67.5,30.03,East,99,14.0,20.0,79,0.00,OVC,,0.00,137.9,WeatherDisplay:10.37,2013-05-01 22:20:00,
2013-05-02 08:25:00,74.3,67.7,30.02,ESE,115,12.0,17.0,80,0.00,OVC,,0.00,440.0,WeatherDisplay:10.37,2013-05-01 22:25:00,
2013-05-02 08:30:00,75.2,67.9,30.02,ESE,117,13.0,20.0,78,0.00,OVC,,0.00,642.4,WeatherDisplay:10.37,2013-05-01 22:30:00,
2013-05-02 08:35:00,76.3,68.2,30.02,ESE,112,9.0,20.0,76,0.00,OVC,,0.00,327.8,WeatherDisplay:10.37,2013-05-01 22:35:00,
2013-05-02 08:40:00,77.5,68.1,30.02,ESE,102,14.0,20.0,73,0.00,OVC,,0.00,658.2,WeatherDisplay:10.37,2013-05-01 22:40:00,
2013-05-02 08:45:00,77.5,67.4,30.02,East,89,13.0,18.0,71,0.00,OVC,,0.00,294.1,WeatherDisplay:10.37,2013-05-01 22:45:00,
2013-05-02 08:50:00,77.5,67.0,30.02,ESE,114,13.0,25.0,70,0.00,OVC,,0.00,824.0,WeatherDisplay:10.37,2013-05-01 22:50:00,
2013-05-02 08:55:00,78.4,67.8,30.02,ESE,111,12.0,22.0,70,0.00,OVC,,0.00,811.5,WeatherDisplay:10.37,2013-05-01 22:55:00,
2013-05-02 09:00:00,78.6,68.0,30.02,ESE,105,9.0,21.0,70,0.00,OVC,,0.00,778.6,WeatherDisplay:10.37,2013-05-01 23:00:00,
2013-05-02 09:05:00,78.7,67.3,30.02,ESE,118,12.0,21.0,68,0.00,OVC,,0.00,838.7,WeatherDisplay:10.37,2013-05-01 23:05:00,
2013-05-02 09:10:00,79.0,67.1,30.03,ESE,116,13.0,23.0,67,0.00,OVC,,0.00,914.1,WeatherDisplay:10.37,2013-05-01 23:10:00,
2013-05-02 09:15:00,79.1,67.2,30.03,East,101,7.0,17.0,67,0.00,OVC,,0.00,914.8,WeatherDisplay:10.37,2013-05-01 23:15:00,
2013-05-02 09:20:00,78.7,67.3,30.03,East,100,13.0,20.0,68,0.00,OVC,,0.00,1030.8,WeatherDisplay:10.37,2013-05-01 23:20:00,
2013-05-02 09:25:00,79.5,67.6,30.02,East,100,7.0,20.0,67,0.00,OVC,,0.00,468.8,WeatherDisplay:10.37,2013-05-01 23:25:00,
2013-05-02 09:30:00,78.5,66.6,30.03,ESE,113,15.0,21.0,67,0.00,OVC,,0.00,504.8,WeatherDisplay:10.37,2013-05-01 23:30:00,
2013-05-02 09:35:00,77.7,67.5,30.03,SE,126,12.0,18.0,71,0.00,OVC,,0.00,415.4,WeatherDisplay:10.37,2013-05-01 23:35:00,
2013-05-02 09:40:00,77.5,67.8,30.03,SE,125,15.0,17.0,72,0.00,OVC,,0.00,494.0,WeatherDisplay:10.37,2013-05-01 23:40:00,
2013-05-02 09:45:00,77.5,68.2,30.03,SE,130,10.0,18.0,73,0.00,OVC,,0.00,404.1,WeatherDisplay:10.37,2013-05-01 23:45:00,
2013-05-02 09:50:00,77.2,68.2,30.03,ESE,116,7.0,20.0,74,0.00,OVC,,0.00,465.3,WeatherDisplay:10.37,2013-05-01 23:50:00,
2013-05-02 09:55:00,77.4,68.4,30.03,ESE,112,8.0,15.0,74,0.00,OVC,,0.00,423.1,WeatherDisplay:10.37,2013-05-01 23:55:00,
2013-05-02 10:00:00,77.2,67.9,30.03,ESE,111,10.0,17.0,73,0.00,OVC,,0.00,387.1,WeatherDisplay:10.37,2013-05-02 00:00:00,
2013-05-02 10:05:00,77.2,68.2,30.03,East,100,6.0,17.0,74,0.00,OVC,,0.00,371.6,WeatherDisplay:10.37,2013-05-02 00:05:00,
2013-05-02 10:10:00,77.4,68.4,30.03,ESE,104,7.0,16.0,74,0.00,OVC,,0.00,302.7,WeatherDisplay:10.37,2013-05-02 00:10:00,
2013-05-02 10:15:00,77.2,68.2,30.03,East,92,7.0,13.0,74,0.00,OVC,,0.00,397.5,WeatherDisplay:10.37,2013-05-02 00:15:00,
2013-05-02 10:20:00,77.2,68.6,30.03,East,80,8.0,13.0,75,0.00,OVC,,0.00,416.2,WeatherDisplay:10.37,2013-05-02 00:20:00,
2013-05-02 10:25:00,76.3,69.3,30.04,East,86,8.0,15.0,79,0.00,OVC,,0.00,349.2,WeatherDisplay:10.37,2013-05-02 00:25:00,
2013-05-02 10:30:00,75.9,69.3,30.03,East,100,6.0,14.0,80,0.00,OVC,,0.00,488.0,WeatherDisplay:10.37,2013-05-02 00:30:00,
2013-05-02 10:35:00,76.4,70.1,30.03,East,95,7.0,13.0,81,0.00,OVC,,0.00,1421.8,WeatherDisplay:10.37,2013-05-02 00:35:00,
2013-05-02 10:45:00,78.0,70.2,30.02,ENE,58,7.0,13.0,77,0.00,OVC,,0.00,1103.7,WeatherDisplay:10.37,2013-05-02 00:45:00,
2013-05-02 10:50:00,78.9,69.6,30.02,ENE,65,6.0,13.0,73,0.00,OVC,,0.00,930.5,WeatherDisplay:10.37,2013-05-02 00:50:00,
2013-05-02 11:00:00,79.9,69.2,30.01,ESE,115,3.0,18.0,70,0.00,OVC,,0.00,1090.1,WeatherDisplay:10.37,2013-05-02 01:00:00,
2013-05-02 11:05:00,80.7,68.7,30.01,ESE,115,7.0,13.0,67,0.00,OVC,,0.00,678.2,WeatherDisplay:10.37,2013-05-02 01:05:00,
2013-05-02 11:10:00,80.4,69.3,30.01,ESE,118,12.0,17.0,69,0.00,OVC,,0.00,595.4,WeatherDisplay:10.37,2013-05-02 01:10:00,
2013-05-02 11:15:00,79.7,69.0,30.01,East,89,6.0,17.0,70,0.00,OVC,,0.00,363.4,WeatherDisplay:10.37,2013-05-02 01:15:00,
2013-05-02 11:20:00,78.9,68.3,30.01,East,87,13.0,23.0,70,0.00,OVC,,0.00,423.8,WeatherDisplay:10.37,2013-05-02 01:20:00,
2013-05-02 11:25:00,78.1,68.7,30.01,East,100,6.0,20.0,73,0.00,OVC,,0.00,530.1,WeatherDisplay:10.37,2013-05-02 01:25:00,
2013-05-02 11:30:00,78.9,69.1,30.00,East,99,3.0,11.0,72,0.00,OVC,,0.00,732.3,WeatherDisplay:10.37,2013-05-02 01:30:00,
2013-05-02 11:35:00,80.1,68.1,30.01,ESE,115,10.0,17.0,67,0.00,OVC,,0.00,800.7,WeatherDisplay:10.37,2013-05-02 01:35:00,
2013-05-02 11:40:00,79.9,68.4,30.01,ESE,103,6.0,17.0,68,0.00,OVC,,0.00,754.8,WeatherDisplay:10.37,2013-05-02 01:40:00,
2013-05-02 11:45:00,79.6,67.7,30.00,ESE,102,10.0,21.0,67,0.00,OVC,,0.00,837.0,WeatherDisplay:10.37,2013-05-02 01:45:00,
2013-05-02 11:50:00,79.9,67.9,30.00,ESE,114,10.0,20.0,67,0.00,OVC,,0.00,781.3,WeatherDisplay:10.37,2013-05-02 01:50:00,
2013-05-02 11:55:00,81.1,69.1,30.00,ESE,120,8.0,15.0,67,0.00,OVC,,0.00,672.5,WeatherDisplay:10.37,2013-05-02 01:55:00,
2013-05-02 12:05:00,79.5,68.5,30.00,ESE,111,9.0,20.0,69,0.00,OVC,,0.00,685.3,WeatherDisplay:10.37,2013-05-02 02:05:00,
2013-05-02 12:10:00,80.0,68.9,29.99,East,88,8.0,15.0,69,0.00,OVC,,0.00,901.5,WeatherDisplay:10.37,2013-05-02 02:10:00,
2013-05-02 12:15:00,80.0,69.3,30.00,NE,41,10.0,16.0,70,0.00,OVC,,0.00,632.3,WeatherDisplay:10.37,2013-05-02 02:15:00,
2013-05-02 12:20:00,79.7,69.5,30.00,East,99,10.0,15.0,71,0.00,OVC,,0.00,571.1,WeatherDisplay:10.37,2013-05-02 02:20:00,
2013-05-02 12:25:00,79.5,69.7,29.99,ESE,109,9.0,17.0,72,0.00,OVC,,0.00,915.4,WeatherDisplay:10.37,2013-05-02 02:25:00,
2013-05-02 12:30:00,80.1,69.8,29.99,East,87,7.0,17.0,71,0.00,OVC,,0.00,661.4,WeatherDisplay:10.37,2013-05-02 02:30:00,
2013-05-02 12:35:00,79.0,69.2,29.99,ENE,61,9.0,18.0,72,0.00,OVC,,0.00,709.1,WeatherDisplay:10.37,2013-05-02 02:35:00,
2013-05-02 12:40:00,79.3,69.1,29.99,ENE,67,9.0,13.0,71,0.00,OVC,,0.00,773.3,WeatherDisplay:10.37,2013-05-02 02:40:00,
2013-05-02 12:45:00,79.5,69.2,29.99,ENE,68,6.0,13.0,71,0.00,OVC,,0.00,616.0,WeatherDisplay:10.37,2013-05-02 02:45:00,
2013-05-02 12:50:00,79.3,68.3,29.98,ENE,77,8.0,15.0,69,0.00,OVC,,0.00,558.0,WeatherDisplay:10.37,2013-05-02 02:50:00,
2013-05-02 12:55:00,79.6,68.6,29.98,East,89,5.0,13.0,69,0.00,OVC,,0.00,606.8,WeatherDisplay:10.37,2013-05-02 02:55:00,
2013-05-02 13:00:00,80.6,69.0,29.98,ENE,74,7.0,12.0,68,0.00,OVC,,0.00,759.0,WeatherDisplay:10.37,2013-05-02 03:00:00,
2013-05-02 13:05:00,81.4,68.5,29.98,East,95,9.0,14.0,65,0.00,OVC,,0.00,805.3,WeatherDisplay:10.37,2013-05-02 03:05:00,
2013-05-02 13:10:00,81.5,68.1,29.98,ESE,109,8.0,15.0,64,0.00,OVC,,0.00,393.3,WeatherDisplay:10.37,2013-05-02 03:10:00,
2013-05-02 13:15:00,80.1,67.7,29.98,East,81,8.0,17.0,66,0.00,OVC,,0.00,330.1,WeatherDisplay:10.37,2013-05-02 03:15:00,
2013-05-02 13:20:00,78.9,68.2,29.98,East,81,9.0,18.0,70,0.00,OVC,,0.00,273.9,WeatherDisplay:10.37,2013-05-02 03:20:00,
2013-05-02 13:25:00,78.2,68.0,29.98,ESE,116,10.0,17.0,71,0.00,OVC,,0.00,335.2,WeatherDisplay:10.37,2013-05-02 03:25:00,
2013-05-02 13:30:00,77.5,68.2,29.98,SE,136,7.0,16.0,73,0.00,OVC,,0.00,408.3,WeatherDisplay:10.37,2013-05-02 03:30:00,
2013-05-02 13:35:00,77.5,67.8,29.98,ESE,117,8.0,14.0,72,0.00,OVC,,0.00,498.6,WeatherDisplay:10.37,2013-05-02 03:35:00,
2013-05-02 13:40:00,78.5,68.3,29.98,East,94,10.0,16.0,71,0.00,OVC,,0.00,616.1,WeatherDisplay:10.37,2013-05-02 03:40:00,
2013-05-02 13:45:00,78.9,67.0,29.98,ESE,105,10.0,16.0,67,0.00,OVC,,0.00,798.6,WeatherDisplay:10.37,2013-05-02 03:45:00,
2013-05-02 13:50:00,80.1,67.7,29.97,East,98,8.0,15.0,66,0.00,OVC,,0.00,1216.4,WeatherDisplay:10.37,2013-05-02 03:50:00,
2013-05-02 13:55:00,81.4,67.6,29.97,East,88,7.0,13.0,63,0.00,OVC,,0.00,898.3,WeatherDisplay:10.37,2013-05-02 03:55:00,
2013-05-02 14:00:00,81.9,67.6,29.97,ENE,78,5.0,11.0,62,0.00,OVC,,0.00,1079.2,WeatherDisplay:10.37,2013-05-02 04:00:00,
2013-05-02 14:05:00,82.5,67.7,29.96,ENE,77,6.0,12.0,61,0.00,OVC,,0.00,436.4,WeatherDisplay:10.37,2013-05-02 04:05:00,
2013-05-02 14:10:00,81.5,67.2,29.97,ENE,72,9.0,14.0,62,0.00,OVC,,0.00,996.0,WeatherDisplay:10.37,2013-05-02 04:10:00,
2013-05-02 14:15:00,82.0,67.3,29.96,ESE,123,10.0,16.0,61,0.00,OVC,,0.00,1317.3,WeatherDisplay:10.37,2013-05-02 04:15:00,
2013-05-02 14:20:00,82.2,67.4,29.96,ESE,111,7.0,16.0,61,0.00,OVC,,0.00,353.0,WeatherDisplay:10.37,2013-05-02 04:20:00,
2013-05-02 14:25:00,81.7,67.4,29.96,ESE,104,8.0,15.0,62,0.00,OVC,,0.00,1147.2,WeatherDisplay:10.37,2013-05-02 04:25:00,
2013-05-02 14:30:00,82.0,67.3,29.96,ESE,109,9.0,13.0,61,0.00,OVC,,0.00,1116.5,WeatherDisplay:10.37,2013-05-02 04:30:00,
2013-05-02 14:35:00,82.0,66.3,29.96,East,90,6.0,11.0,59,0.00,OVC,,0.00,1059.8,WeatherDisplay:10.37,2013-05-02 04:35:00,
2013-05-02 14:40:00,82.9,66.6,29.95,East,98,5.0,11.0,58,0.00,OVC,,0.00,1023.3,WeatherDisplay:10.37,2013-05-02 04:40:00,
2013-05-02 14:45:00,83.3,67.4,29.95,East,89,9.0,17.0,59,0.00,OVC,,0.00,1207.0,WeatherDisplay:10.37,2013-05-02 04:45:00,
2013-05-02 14:50:00,83.4,67.6,29.95,East,82,7.0,13.0,59,0.00,OVC,,0.00,675.0,WeatherDisplay:10.37,2013-05-02 04:50:00,
2013-05-02 14:55:00,82.7,67.4,29.95,East,89,8.0,16.0,60,0.00,OVC,,0.00,376.8,WeatherDisplay:10.37,2013-05-02 04:55:00,
2013-05-02 15:00:00,80.9,67.1,29.96,ESE,105,8.0,15.0,63,0.00,OVC,,0.00,324.8,WeatherDisplay:10.37,2013-05-02 05:00:00,
2013-05-02 15:05:00,80.6,68.2,29.96,East,101,6.0,10.0,66,0.00,OVC,,0.00,258.6,WeatherDisplay:10.37,2013-05-02 05:05:00,
2013-05-02 15:10:00,79.9,67.9,29.96,East,89,12.0,14.0,67,0.00,OVC,,0.00,925.7,WeatherDisplay:10.37,2013-05-02 05:10:00,
2013-05-02 15:15:00,80.1,68.5,29.96,ESE,105,12.0,17.0,68,0.00,OVC,,0.00,328.8,WeatherDisplay:10.37,2013-05-02 05:15:00,
2013-05-02 15:20:00,79.7,68.2,29.96,SE,141,13.0,15.0,68,0.00,OVC,,0.00,286.3,WeatherDisplay:10.37,2013-05-02 05:20:00,
2013-05-02 15:25:00,79.1,67.6,29.97,SE,139,12.0,15.0,68,0.00,OVC,,0.00,178.3,WeatherDisplay:10.37,2013-05-02 05:25:00,
2013-05-02 15:30:00,78.2,67.2,29.96,ESE,121,6.0,15.0,69,0.00,OVC,,0.00,283.4,WeatherDisplay:10.37,2013-05-02 05:30:00,
2013-05-02 15:40:00,78.4,67.4,29.97,East,99,7.0,10.0,69,0.00,OVC,,0.00,213.1,WeatherDisplay:10.37,2013-05-02 05:40:00,
2013-05-02 15:45:00,78.1,67.1,29.96,East,92,7.0,10.0,69,0.00,OVC,,0.00,255.8,WeatherDisplay:10.37,2013-05-02 05:45:00,
2013-05-02 15:50:00,77.7,66.7,29.97,East,85,5.0,10.0,69,0.00,OVC,,0.00,592.5,WeatherDisplay:10.37,2013-05-02 05:50:00,
2013-05-02 15:55:00,78.7,67.3,29.97,ENE,78,5.0,9.0,68,0.00,OVC,,0.00,457.5,WeatherDisplay:10.37,2013-05-02 05:55:00,
2013-05-02 16:00:00,78.8,67.4,29.97,East,91,5.0,10.0,68,0.00,CLR,,0.00,492.9,WeatherDisplay:10.37,2013-05-02 06:00:00,
2013-05-02 16:05:00,79.1,67.6,29.96,East,91,3.0,9.0,68,0.00,CLR,,0.00,308.3,WeatherDisplay:10.37,2013-05-02 06:05:00,
2013-05-02 16:10:00,80.0,67.6,29.97,East,79,5.0,7.0,66,0.00,CLR,,0.00,326.9,WeatherDisplay:10.37,2013-05-02 06:10:00,
2013-05-02 16:15:00,79.7,66.9,29.97,East,82,7.0,11.0,65,0.00,CLR,,0.00,341.8,WeatherDisplay:10.37,2013-05-02 06:15:00,
2013-05-02 16:20:00,80.1,68.1,29.97,ENE,77,7.0,9.0,67,0.00,CLR,,0.00,283.5,WeatherDisplay:10.37,2013-05-02 06:20:00,
2013-05-02 16:25:00,79.5,67.1,29.97,East,99,5.0,8.0,66,0.00,CLR,,0.00,382.2,WeatherDisplay:10.37,2013-05-02 06:25:00,
2013-05-02 16:30:00,79.7,67.3,29.97,ESE,119,6.0,11.0,66,0.00,CLR,,0.00,367.2,WeatherDisplay:10.37,2013-05-02 06:30:00,
2013-05-02 16:35:00,79.6,65.9,29.97,SE,129,6.0,12.0,63,0.00,CLR,,0.00,255.4,WeatherDisplay:10.37,2013-05-02 06:35:00,
2013-05-02 16:40:00,79.3,66.1,29.97,SE,128,7.0,13.0,64,0.00,CLR,,0.00,421.8,WeatherDisplay:10.37,2013-05-02 06:40:00,
2013-05-02 16:45:00,79.8,66.5,29.97,SE,129,7.0,12.0,64,0.00,CLR,,0.00,389.5,WeatherDisplay:10.37,2013-05-02 06:45:00,
2013-05-02 16:50:00,79.6,66.3,29.97,ESE,120,6.0,13.0,64,0.00,CLR,,0.00,426.0,WeatherDisplay:10.37,2013-05-02 06:50:00,
2013-05-02 16:55:00,80.4,67.1,29.97,SE,129,6.0,9.0,64,0.00,CLR,,0.00,403.8,WeatherDisplay:10.37,2013-05-02 06:55:00,
2013-05-02 17:00:00,81.1,67.3,29.97,SE,124,8.0,10.0,63,0.00,CLR,,0.00,342.4,WeatherDisplay:10.37,2013-05-02 07:00:00,
2013-05-02 17:05:00,81.2,66.9,29.98,East,91,5.0,8.0,62,0.00,CLR,,0.00,303.8,WeatherDisplay:10.37,2013-05-02 07:05:00,
2013-05-02 17:10:00,81.3,67.1,29.98,East,98,3.0,8.0,62,0.00,CLR,,0.00,275.8,WeatherDisplay:10.37,2013-05-02 07:10:00,
2013-05-02 17:15:00,80.7,67.0,29.98,East,84,6.0,10.0,63,0.00,CLR,,0.00,221.1,WeatherDisplay:10.37,2013-05-02 07:15:00,
2013-05-02 17:20:00,79.5,67.2,29.98,ENE,63,6.0,13.0,66,0.00,CLR,,0.00,172.5,WeatherDisplay:10.37,2013-05-02 07:20:00,
2013-05-02 17:25:00,79.0,67.1,29.98,ENE,69,3.0,9.0,67,0.00,CLR,,0.00,104.7,WeatherDisplay:10.37,2013-05-02 07:25:00,
2013-05-02 17:35:00,77.5,67.8,29.98,East,97,5.0,10.0,72,0.00,CLR,,0.00,54.7,WeatherDisplay:10.37,2013-05-02 07:35:00,
2013-05-02 17:40:00,77.0,67.7,29.98,ESE,103,2.0,8.0,73,0.00,CLR,,0.00,15.2,WeatherDisplay:10.37,2013-05-02 07:40:00,
2013-05-02 17:45:00,76.6,68.1,29.98,ESE,109,5.0,7.0,75,0.00,CLR,,0.00,11.9,WeatherDisplay:10.37,2013-05-02 07:45:00,
2013-05-02 17:50:00,76.1,68.0,29.99,East,97,2.0,6.0,76,0.00,CLR,,0.00,4.9,WeatherDisplay:10.37,2013-05-02 07:50:00,
2013-05-02 17:55:00,75.9,67.8,29.99,ESE,104,3.0,7.0,76,0.00,CLR,,0.00,2.7,WeatherDisplay:10.37,2013-05-02 07:55:00,
2013-05-02 18:00:00,75.6,67.1,29.99,SE,128,10.0,13.0,75,0.00,CLR,,0.00,0.0,WeatherDisplay:10.37,2013-05-02 08:00:00,
2013-05-02 18:05:00,75.4,66.9,29.99,ESE,123,6.0,13.0,75,0.00,CLR,,0.00,0.0,WeatherDisplay:10.37,2013-05-02 08:05:00,
2013-05-02 18:10:00,75.3,67.2,29.99,ESE,109,3.0,8.0,76,0.00,CLR,,0.00,0.0,WeatherDisplay:10.37,2013-05-02 08:10:00,
2013-05-02 18:15:00,75.2,67.1,29.99,East,86,2.0,6.0,76,0.00,CLR,,0.00,0.0,WeatherDisplay:10.37,2013-05-02 08:15:00,
2013-05-02 18:20:00,74.9,68.0,29.99,East,84,7.0,12.0,79,0.00,CLR,,0.00,0.0,WeatherDisplay:10.37,2013-05-02 08:20:00,
2013-05-02 18:25:00,74.5,67.9,29.99,East,85,5.0,8.0,80,0.00,CLR,,0.00,0.0,WeatherDisplay:10.37,2013-05-02 08:25:00,
2013-05-02 18:30:00,74.2,68.0,29.99,East,98,3.0,6.0,81,0.00,CLR,,0.00,0.0,WeatherDisplay:10.37,2013-05-02 08:30:00,
2013-05-02 18:35:00,73.9,67.7,29.99,East,99,2.0,6.0,81,0.00,CLR,,0.00,0.0,WeatherDisplay:10.37,2013-05-02 08:35:00,
2013-05-02 18:40:00,73.6,67.7,29.99,East,92,1.0,3.0,82,0.00,CLR,,0.00,0.0,WeatherDisplay:10.37,2013-05-02 08:40:00,
2013-05-02 18:50:00,73.4,67.9,30.00,SE,131,2.0,6.0,83,0.00,CLR,,0.00,0.0,WeatherDisplay:10.37,2013-05-02 08:50:00,
2013-05-02 18:55:00,73.4,67.9,30.00,SE,134,3.0,8.0,83,0.00,CLR,,0.00,0.0,WeatherDisplay:10.37,2013-05-02 08:55:00,
2013-05-02 19:00:00,73.4,67.9,30.00,SE,133,2.0,6.0,83,0.00,CLR,,0.00,0.0,WeatherDisplay:10.37,2013-05-02 09:00:00,
2013-05-02 19:05:00,73.4,67.9,30.00,SE,134,1.0,5.0,83,0.00,CLR,,0.00,0.0,WeatherDisplay:10.37,2013-05-02 09:05:00,
2013-05-02 19:10:00,73.2,67.4,30.00,SE,126,2.0,5.0,82,0.00,CLR,,0.00,0.0,WeatherDisplay:10.37,2013-05-02 09:10:00,
2013-05-02 19:15:00,73.1,67.2,30.01,ESE,117,2.0,4.0,82,0.00,CLR,,0.00,0.0,WeatherDisplay:10.37,2013-05-02 09:15:00,
2013-05-02 19:20:00,73.0,67.2,30.01,ESE,122,2.0,4.0,82,0.00,CLR,,0.00,0.0,WeatherDisplay:10.37,2013-05-02 09:20:00,
2013-05-02 19:25:00,73.0,67.6,30.01,SE,126,3.0,6.0,83,0.00,CLR,,0.00,0.0,WeatherDisplay:10.37,2013-05-02 09:25:00,
2013-05-02 19:30:00,72.7,67.2,30.01,SE,124,3.0,6.0,83,0.00,CLR,,0.00,0.0,WeatherDisplay:10.37,2013-05-02 09:30:00,
2013-05-02 19:35:00,72.5,67.4,30.01,SE,131,3.0,6.0,84,0.00,CLR,,0.00,0.0,WeatherDisplay:10.37,2013-05-02 09:35:00,
2013-05-02 19:40:00,72.3,67.2,30.01,SE,137,2.0,5.0,84,0.00,CLR,,0.00,0.0,WeatherDisplay:10.37,2013-05-02 09:40:00,
2013-05-02 19:45:00,72.2,67.1,30.02,SE,128,1.0,3.0,84,0.00,CLR,,0.00,0.0,WeatherDisplay:10.37,2013-05-02 09:45:00,
2013-05-02 19:50:00,72.1,67.0,30.02,ESE,106,1.0,2.0,84,0.00,CLR,,0.00,0.0,WeatherDisplay:10.37,2013-05-02 09:50:00,
2013-05-02 19:55:00,72.1,67.0,30.02,ESE,113,1.0,3.0,84,0.00,CLR,,0.00,0.0,WeatherDisplay:10.37,2013-05-02 09:55:00,
2013-05-02 20:00:00,72.1,67.4,30.02,ESE,123,1.0,2.0,85,0.00,CLR,,0.00,0.0,WeatherDisplay:10.37,2013-05-02 10:00:00,
2013-05-02 20:10:00,72.1,67.4,30.03,SE,135,0.0,0.0,85,0.00,CLR,,0.00,0.0,WeatherDisplay:10.37,2013-05-02 10:10:00,
2013-05-02 20:15:00,72.0,67.2,30.03,SE,135,0.0,0.0,85,0.00,CLR,,0.00,0.0,WeatherDisplay:10.37,2013-05-02 10:15:00,
2013-05-02 20:20:00,72.0,67.5,30.03,East,79,2.0,3.0,86,0.00,CLR,,0.00,0.0,WeatherDisplay:10.37,2013-05-02 10:20:00,
2013-05-02 20:25:00,72.0,67.9,30.03,NE,46,5.0,8.0,87,0.00,CLR,,0.00,0.0,WeatherDisplay:10.37,2013-05-02 10:25:00,
2013-05-02 20:30:00,72.0,67.5,30.04,ENE,58,5.0,7.0,86,0.00,CLR,,0.00,0.0,WeatherDisplay:10.37,2013-05-02 10:30:00,
2013-05-02 20:35:00,72.0,67.5,30.04,East,83,5.0,8.0,86,0.00,CLR,,0.00,0.0,WeatherDisplay:10.37,2013-05-02 10:35:00,
2013-05-02 20:40:00,71.9,67.2,30.04,ESE,110,5.0,7.0,85,0.00,CLR,,0.00,0.0,WeatherDisplay:10.37,2013-05-02 10:40:00,
2013-05-02 20:50:00,72.1,67.4,30.04,East,89,2.0,6.0,85,0.00,CLR,,0.00,0.0,WeatherDisplay:10.37,2013-05-02 10:50:00,
2013-05-02 20:55:00,72.3,67.2,30.04,ENE,75,2.0,6.0,84,0.00,CLR,,0.00,0.0,WeatherDisplay:10.37,2013-05-02 10:55:00,
2013-05-02 21:05:00,72.3,67.2,30.04,ESE,112,2.0,8.0,84,0.00,CLR,,0.00,0.0,WeatherDisplay:10.37,2013-05-02 11:05:00,
2013-05-02 21:10:00,72.3,67.2,30.04,ESE,110,2.0,6.0,84,0.00,CLR,,0.00,0.0,WeatherDisplay:10.37,2013-05-02 11:10:00,
2013-05-02 21:15:00,72.3,67.2,30.04,ESE,103,2.0,8.0,84,0.00,CLR,,0.00,0.0,WeatherDisplay:10.37,2013-05-02 11:15:00,
2013-05-02 21:20:00,72.3,67.2,30.04,ESE,115,3.0,5.0,84,0.00,CLR,,0.00,0.0,WeatherDisplay:10.37,2013-05-02 11:20:00,
2013-05-02 21:25:00,72.1,67.0,30.04,ESE,117,0.0,4.0,84,0.00,CLR,,0.00,0.0,WeatherDisplay:10.37,2013-05-02 11:25:00,
2013-05-02 21:30:00,72.1,67.0,30.04,ENE,70,2.0,3.0,84,0.00,CLR,,0.00,0.0,WeatherDisplay:10.37,2013-05-02 11:30:00,
2013-05-02 21:35:00,72.1,67.4,30.04,SE,146,3.0,6.0,85,0.00,CLR,,0.00,0.0,WeatherDisplay:10.37,2013-05-02 11:35:00,
2013-05-02 21:40:00,72.0,67.2,30.04,SE,137,5.0,7.0,85,0.00,CLR,,0.00,0.0,WeatherDisplay:10.37,2013-05-02 11:40:00,
2013-05-02 21:45:00,71.6,66.8,30.04,SE,135,3.0,7.0,85,0.00,CLR,,0.00,0.0,WeatherDisplay:10.37,2013-05-02 11:45:00,
2013-05-02 21:50:00,71.5,67.4,30.04,SE,139,3.0,6.0,87,0.00,CLR,,0.00,0.0,WeatherDisplay:10.37,2013-05-02 11:50:00,
2013-05-02 21:55:00,71.4,67.7,30.04,SE,135,2.0,5.0,88,0.00,CLR,,0.00,0.0,WeatherDisplay:10.37,2013-05-02 11:55:00,
2013-05-02 22:00:00,71.6,67.5,30.04,ESE,122,3.0,6.0,87,0.00,CLR,,0.00,0.0,WeatherDisplay:10.37,2013-05-02 12:00:00,
2013-05-02 22:05:00,71.6,67.5,30.04,ESE,120,2.0,5.0,87,0.00,CLR,,0.00,0.0,WeatherDisplay:10.37,2013-05-02 12:05:00,
2013-05-02 22:10:00,71.6,67.5,30.04,SE,127,5.0,8.0,87,0.00,CLR,,0.00,0.0,WeatherDisplay:10.37,2013-05-02 12:10:00,
2013-05-02 22:15:00,71.8,67.7,30.05,ESE,123,3.0,8.0,87,0.00,CLR,,0.00,0.0,WeatherDisplay:10.37,2013-05-02 12:15:00,
2013-05-02 22:20:00,71.8,67.7,30.04,ESE,120,3.0,8.0,87,0.00,CLR,,0.00,0.0,WeatherDisplay:10.37,2013-05-02 12:20:00,
2013-05-02 22:25:00,72.0,67.5,30.04,SE,133,3.0,10.0,86,0.00,CLR,,0.00,0.0,WeatherDisplay:10.37,2013-05-02 12:25:00,
2013-05-02 22:30:00,71.8,67.4,30.05,SE,126,9.0,15.0,86,0.00,CLR,,0.00,0.0,WeatherDisplay:10.37,2013-05-02 12:30:00,
2013-05-02 22:40:00,72.1,67.0,30.04,ESE,105,3.0,11.0,84,0.00,CLR,,0.00,0.0,WeatherDisplay:10.37,2013-05-02 12:40:00,
2013-05-02 22:45:00,72.1,67.0,30.04,ESE,113,12.0,15.0,84,0.00,CLR,,0.00,0.0,WeatherDisplay:10.37,2013-05-02 12:45:00,
2013-05-02 22:50:00,72.3,66.9,30.05,ESE,115,9.0,14.0,83,0.00,CLR,,0.00,0.0,WeatherDisplay:10.37,2013-05-02 12:50:00,
2013-05-02 22:55:00,72.3,66.9,30.04,ESE,118,9.0,14.0,83,0.00,CLR,,0.00,0.0,WeatherDisplay:10.37,2013-05-02 12:55:00,
2013-05-02 23:00:00,72.1,66.7,30.04,ESE,123,9.0,13.0,83,0.00,CLR,,0.00,0.0,WeatherDisplay:10.37,2013-05-02 13:00:00,
2013-05-02 23:05:00,72.1,66.3,30.04,SE,128,8.0,15.0,82,0.00,CLR,,0.00,0.0,WeatherDisplay:10.37,2013-05-02 13:05:00,
2013-05-02 23:10:00,72.3,66.5,30.04,ESE,109,8.0,16.0,82,0.00,CLR,,0.00,0.0,WeatherDisplay:10.37,2013-05-02 13:10:00,
2013-05-02 23:15:00,72.3,66.2,30.04,ESE,111,5.0,13.0,81,0.00,CLR,,0.00,0.0,WeatherDisplay:10.37,2013-05-02 13:15:00,
2013-05-02 23:20:00,72.1,66.3,30.04,ESE,118,5.0,8.0,82,0.00,CLR,,0.00,0.0,WeatherDisplay:10.37,2013-05-02 13:20:00,
2013-05-02 23:25:00,72.1,66.3,30.04,East,92,3.0,7.0,82,0.00,CLR,,0.00,0.0,WeatherDisplay:10.37,2013-05-02 13:25:00,
2013-05-02 23:30:00,72.1,66.3,30.04,East,79,1.0,5.0,82,0.00,CLR,,0.00,0.0,WeatherDisplay:10.37,2013-05-02 13:30:00,
2013-05-02 23:35:00,72.0,66.5,30.04,ENE,60,2.0,5.0,83,0.00,CLR,,0.00,0.0,WeatherDisplay:10.37,2013-05-02 13:35:00,
2013-05-02 23:40:00,72.0,66.5,30.04,NE,52,1.0,6.0,83,0.00,CLR,,0.00,0.0,WeatherDisplay:10.37,2013-05-02 13:40:00,
2013-05-02 23:45:00,71.8,66.7,30.05,ENE,77,2.0,4.0,84,0.00,CLR,,0.00,0.0,WeatherDisplay:10.37,2013-05-02 13:45:00,
2013-05-02 23:50:00,71.8,66.7,30.04,ESE,108,2.0,5.0,84,0.00,CLR,,0.00,0.0,WeatherDisplay:10.37,2013-05-02 13:50:00,
2013-05-02 23:55:00,71.8,66.7,30.04,East,90,1.0,3.0,84,0.00,CLR,,0.00,0.0,WeatherDisplay:10.37,2013-05-02 13:55:00,